Home   Weather   Sørumsand   Past weeks

Flag for Norway Past Weather in Sørumsand, Norway — Yesterday and Last 2 Weeks

Now
57 °F

Sunny.


Feels Like: 57 °F
Forecast: 46 / 60 °F
Wind: 2 mph from North

Location: Oslo Gardermoen Airport

Current Time: Sep 26, 2016 at 7:24:31 PM

Latest Report: Sep 26, 2016 at 6:50 PM


Visibility: 10 mi

Pressure: 30.15 "Hg

Humidity: 67%

Dew Point: 46 °F

Location of SørumsandLocation

Past Weather in Sørumsand — Graph

°F

Sørumsand Temperature Yesterday

Maximum temperature yesterday: 63 °F (at 3:20 PM)
Minimum temperature yesterday: 55 °F (at 12:20 AM)
Average temperature yesterday: 58 °F

High & Low Weather Summary for the Past Weeks

 TemperatureHumidityPressure
High72 °F (Sep 13, 3:20 PM)100% (Sep 13, 3:50 AM)30.24 "Hg (Sep 13, 3:50 AM)
Low39 °F (Sep 12, 5:50 AM)34% (Sep 11, 6:20 PM)29.86 "Hg (Sep 11, 5:20 PM)
Average56 °F83%30.12 "Hg
* Reported Sep 11 5:20 PM — Sep 26 5:50 PM, Sørumsand, Weather by CustomWeather, © 2016

Note: Actual official high and low records may vary slightly from our data, if they occured in-between our weather recording intervals... More about our weather records

Advertising

Sørumsand Weather History for the Previous 24 Hours

Scroll right to see more
 ConditionsComfort  
Time TempWeatherWind HumidityBarometerVisibility
5:50 PM
Mon, Sep 26
63 °FPassing clouds.9 mph59%30.15 "HgN/A
5:20 PM63 °FScattered clouds.12 mph59%30.15 "HgN/A
4:50 PM63 °FScattered clouds.13 mph59%30.12 "HgN/A
4:20 PM63 °FScattered clouds.12 mph68%30.12 "HgN/A
3:50 PM63 °FScattered clouds.9 mph73%30.12 "HgN/A
3:20 PM63 °FPartly sunny.6 mph77%30.12 "HgN/A
2:50 PM61 °FBroken clouds.6 mph83%30.12 "HgN/A
2:20 PM59 °FBroken clouds.6 mph88%30.12 "HgN/A
1:50 PM57 °FBroken clouds.6 mph94%30.12 "Hg5 mi
1:20 PM55 °FPartly sunny.6 mph94%30.12 "Hg6 mi
12:50 PM55 °FPartly sunny.8 mph94%30.09 "Hg4 mi
12:20 PM55 °FPartly sunny.6 mph94%30.09 "Hg4 mi
11:50 AM54 °FPartly sunny.7 mph94%30.09 "Hg6 mi
11:20 AM54 °FRain. Partly sunny.7 mph94%30.09 "Hg6 mi
10:50 AM54 °FRain. Partly sunny.6 mph94%30.09 "Hg6 mi
10:20 AM54 °FRain. Partly sunny.8 mph88%30.07 "Hg4 mi
9:50 AM54 °FPartly sunny.8 mph88%30.07 "HgN/A
9:20 AM54 °FPartly sunny.7 mph88%30.07 "HgN/A
8:50 AM54 °FPartly sunny.8 mph88%30.07 "HgN/A
8:20 AM54 °FPartly sunny.7 mph88%30.07 "HgN/A
7:50 AM54 °FPartly sunny.7 mph88%30.07 "HgN/A
7:20 AM54 °FPartly sunny.8 mph88%30.07 "HgN/A
6:50 AM54 °FPassing clouds.6 mph88%30.07 "HgN/A
6:20 AM54 °FPassing clouds.6 mph88%30.07 "HgN/A
5:50 AM55 °FPassing clouds.5 mph82%30.07 "HgN/A
5:20 AM55 °FPassing clouds.7 mph82%30.07 "HgN/A
4:50 AM55 °FPassing clouds.9 mph82%30.07 "HgN/A
4:20 AM55 °FPassing clouds.8 mph82%30.07 "HgN/A
3:50 AM55 °FPassing clouds.9 mph82%30.07 "HgN/A
3:20 AM55 °FPassing clouds.7 mph82%30.07 "HgN/A
2:50 AM55 °FPassing clouds.7 mph82%30.07 "HgN/A
2:20 AM54 °FPartly cloudy.2 mph88%30.07 "HgN/A
1:50 AM55 °FPartly cloudy.2 mph88%30.09 "HgN/A
1:20 AM55 °FPassing clouds.2 mph88%30.09 "HgN/A
12:50 AM55 °FPassing clouds.2 mph88%30.09 "HgN/A
12:20 AM55 °FPartly cloudy.2 mph88%30.09 "HgN/A
11:50 PM
Sun, Sep 25
55 °FPassing clouds.5 mph88%30.09 "HgN/A
11:20 PM55 °FClear.2 mph94%30.09 "Hg10 mi
10:50 PM55 °FClear.3 mph88%30.09 "Hg10 mi
10:20 PM57 °FPassing clouds.5 mph88%30.09 "HgN/A
9:50 PM57 °FPassing clouds.9 mph88%30.09 "HgN/A
9:20 PM57 °FPassing clouds.6 mph88%30.09 "HgN/A
8:50 PM57 °FPassing clouds.6 mph88%30.09 "HgN/A
8:20 PM57 °FClear.7 mph88%30.07 "Hg10 mi
7:50 PM59 °FPassing clouds.10 mph82%30.07 "HgN/A
7:20 PM59 °FPartly cloudy.9 mph82%30.07 "HgN/A
Weather by CustomWeather, © 2016

See weather overviewHow to use our weather pages